Stations météo

Publicité
Bordeaux/Merignac, France (7510): Température de l'air & dewpoint: 08.11.2018 09:00:00 - 14.11.2018 09:00:00 (CET)Bordeaux/Merignac, France (7510): Température de l'air 5cm: 08.11.2018 09:00:00 - 14.11.2018 09:00:00 (CET)Bordeaux/Merignac, France (7510): Température de l'air -20cm & Température de l'air -100cm: 08.11.2018 09:00:00 - 14.11.2018 09:00:00 (CET)Bordeaux/Merignac, France (7510): Vitesse du vent & gusts: 08.11.2018 09:00:00 - 14.11.2018 09:00:00 (CET)Bordeaux/Merignac, France (7510): Direction du vent: 08.11.2018 09:00:00 - 14.11.2018 09:00:00 (CET)Bordeaux/Merignac, France (7510): reduced air pressure: 08.11.2018 09:00:00 - 14.11.2018 09:00:00 (CET)Bordeaux/Merignac, France (7510): visibility: 08.11.2018 09:00:00 - 14.11.2018 09:00:00 (CET)Bordeaux/Merignac, France (7510): Quantités de précipitations: 08.11.2018 09:00:00 - 14.11.2018 09:00:00 (CET)
Date & Time tt [°C] td [°C] tt 5cm [°C] tt -20cm [°C] tt -100cm [°C] ff [km/h] ff [knt] fx [km/h] fx [knt] dd ppp [hPa] vv [km] rr [mm]
14.11.2018 09:00:00 10,7 10,5 10,3 12,4 15,1 7 4 11 6 E 1024,1 4,3 0,0
14.11.2018 08:00:00 10,7 10,7 9,9 12,4 15,1 4 2 14 7 ENE 1023,9 0,2 0,0
14.11.2018 07:00:00 10,0 10,0 9,3 12,4 15,1 9 5 13 7 E 1023,8 1,3 0,0
14.11.2018 06:00:00 9,3 9,3 7,5 12,5 15,1 9 5 14 8 E 1024,2 0,5 0,0
14.11.2018 05:00:00 8,5 8,4 7,1 12,6 15,1 9 5 11 6 E 1024,2 1,2 0,0
14.11.2018 04:00:00 8,5 8,4 7,0 12,7 15,1 6 4 9 5 E 1024,6 1,2 0,0
14.11.2018 03:00:00 8,2 8,1 4,9 12,9 15,1 5 3 8 4 E 1025,2 0,9 0,0
14.11.2018 02:00:00 7,8 7,4 5,1 13,0 15,1 3 1 7 4 NE 1025,6 0,2 0,0
14.11.2018 01:00:00 8,4 8,1 5,6 13,2 15,1 5 3 6 4 E 1026,2 2,4 0,0
14.11.2018 00:00:00 8,7 8,2 5,7 13,3 15,1 2 1 6 3 E 1026,4 0,2 0,0
13.11.2018 23:00:00 9,5 8,9 6,5 13,5 15,1 5 3 8 5 E 1026,9 8 0,0
13.11.2018 22:00:00 9,6 8,5 6,5 13,7 15,1 4 2 8 4 E 1027,5 17 0,0
13.11.2018 21:00:00 10,7 8,8 8,8 13,8 15,1 5 3 11 6 E 1027,8 25 0,0
13.11.2018 20:00:00 11,5 8,9 9,8 14,0 15,1 6 4 15 8 NE 1028,1 28 0,0
13.11.2018 19:00:00 12,2 9,0 10,1 14,1 15,1 8 4 13 7 ENE 1027,9 38 0,0
13.11.2018 18:00:00 13,7 8,3 12,2 14,2 15,1 9 5 16 9 E 1027,7 60 0,0
13.11.2018 17:00:00 15,2 9,1 15,6 14,1 15,1 11 6 20 11 ENE 1027,7 51 0,0
13.11.2018 16:00:00 15,6 8,6 18,2 13,9 15,1 14 7 23 12 ENE 1028,0 41 0,0
13.11.2018 15:00:00 15,6 9,5 16,4 13,7 15,1 10 5 20 11 ENE 1028,2 39 0,0
13.11.2018 14:00:00 15,6 10,4 16,9 13,5 15,1 9 5 15 8 ENE 1028,5 49 0,0
13.11.2018 13:00:00 14,3 11,3 15,8 13,2 15,1 9 5 13 7 NE 1029,0 39 0,0
13.11.2018 12:00:00 13,5 11,7 13,7 13,0 15,1 4 2 9 5 NE 1029,3 31 0,0
13.11.2018 11:00:00 12,3 11,7 10,1 12,9 15,1 3 2 13 7 E 1029,5 28 0,0
13.11.2018 10:00:00 10,2 10,2 8,5 13,0 15,1 5 3 7 4 SE 1029,1 1,3 0,0
13.11.2018 09:00:00 8,9 8,8 7,2 13,1 15,1 2 1 4 2 ESE 1028,8 0,3 0,0
13.11.2018 08:00:00 8,9 8,6 6,9 13,2 15,1 4 2 6 3 SSE 1028,0 0,2 0,0
13.11.2018 07:00:00 9,7 9,4 7,9 13,3 15,1 0 0 8 5 N 1027,3 0,1 0,0
13.11.2018 06:00:00 10,2 9,7 8,0 13,4 15,1 0 0 5 3 N 1026,8 0,2 0,0
13.11.2018 05:00:00 10,9 10,6 10,3 13,4 15,1 3 2 6 4 S 1026,2 3,6 0,0
13.11.2018 04:00:00 11,0 10,8 9,8 13,5 15,1 3 2 11 6 WSW 1025,8 2,3 0,0
13.11.2018 03:00:00 10,3 10,0 9,1 13,5 15,1 6 3 10 5 S 1025,5 0,4 0,0
13.11.2018 02:00:00 10,9 10,6 10,3 13,6 15,1 5 3 6 4 SW 1024,9 2,2 0,2
13.11.2018 01:00:00 11,0 10,7 10,6 13,7 15,1 4 2 5 3 SE 1024,1 9 0,0
13.11.2018 00:00:00 11,1 10,6 10,7 13,7 15,1 0 0 6 3 N 1023,4 3,7 0,2
12.11.2018 23:00:00 11,3 10,8 10,9 13,7 15,1 6 3 9 5 W 1023,0 29 0,0
12.11.2018 22:00:00 11,4 10,9 11,0 13,8 15,1 3 1 13 7 E 1021,6 6 2,5
12.11.2018 21:00:00 11,5 11,0 11,2 13,9 15,1 6 3 18 10 NNW 1021,0 13 1,8
12.11.2018 20:00:00 11,7 11,2 11,3 13,9 15,1 10 5 14 8 NW 1020,5 6 0,6
12.11.2018 19:00:00 11,8 11,2 11,1 14,0 15,1 4 2 15 8 NW 1019,8 14 0,4
12.11.2018 18:00:00 11,7 10,9 11,3 14,0 15,1 5 3 11 6 NW 1019,1 11 0,4
12.11.2018 17:00:00 12,1 11,3 11,5 14,1 15,1 7 4 12 6 NW 1018,5 12 0,2
12.11.2018 16:00:00 12,1 10,8 11,7 14,0 15,1 0 0 5 3 N 1018,3 48 0,8
12.11.2018 15:00:00 12,3 11,2 12,1 14,0 15,1 3 2 9 5 SSW 1018,1 19 0,2
12.11.2018 14:00:00 12,5 11,4 12,1 13,9 15,1 2 1 10 6 SSW 1017,9 10 0,4
12.11.2018 13:00:00 12,4 11,3 12,1 13,9 15,0 6 4 11 6 SE 1017,8 20 0,2
12.11.2018 12:00:00 12,4 10,8 12,6 13,8 15,1 7 4 16 8 ENE 1017,6 60 0,0
12.11.2018 11:00:00 12,2 10,8 12,1 13,8 15,1 11 6 17 9 NNW 1016,8 59 0,0
12.11.2018 10:00:00 11,4 10,3 11,4 13,8 15,1 9 5 16 9 NW 1016,3 31 0,0
12.11.2018 09:00:00 11,3 10,4 11,1 13,8 15,1 11 6 19 10 NW 1015,6 34 0,0
12.11.2018 08:00:00 11,2 10,3 11,1 13,8 15,0 9 5 14 7 NW 1013,9 44 0,0
12.11.2018 07:00:00 11,4 10,6 11,1 13,9 15,0 6 4 11 6 NW 1012,8 37 0,0
12.11.2018 06:00:00 11,5 10,7 11,2 13,9 15,0 4 2 9 5 NNE 1011,5 60 0,0
12.11.2018 05:00:00 11,5 10,7 11,2 14,0 15,0 5 3 18 10 NNW 1010,4 60 0,0
12.11.2018 04:00:00 11,5 11,0 11,4 14,0 15,0 9 5 21 11 NNE 1009,7 60 0,0
12.11.2018 03:00:00 11,6 11,3 11,5 14,1 15,0 10 6 14 8 NNE 1009,5 16 0,0
12.11.2018 02:00:00 12,0 11,7 11,9 14,1 15,0 12 7 19 11 N 1009,5 11 0,0
12.11.2018 01:00:00 12,8 12,5 12,6 14,1 15,0 13 7 21 11 NNW 1009,2 0,3 0,0
12.11.2018 00:00:00 13,4 12,9 12,8 14,2 15,0 5 3 12 6 NNE 1009,1 3,8 0,0
11.11.2018 23:00:00 13,7 13,2 13,4 14,2 15,0 9 5 15 8 NNE 1009,6 4,7 0,0
11.11.2018 22:00:00 14,1 13,5 13,6 14,2 15,0 3 2 8 4 N 1010,3 7 1,4
11.11.2018 21:00:00 14,4 13,8 13,6 14,2 15,0 4 2 14 7 N 1010,0 2,3 2,0
11.11.2018 20:00:00 14,7 13,4 13,7 14,2 15,0 5 3 11 6 N 1009,8 14 0,6
11.11.2018 19:00:00 15,5 13,2 14,1 14,2 15,0 4 2 9 5 NNE 1009,7 19 0,0
11.11.2018 18:00:00 16,2 12,9 14,9 14,2 15,0 6 3 14 8 NNE 1009,5 24 0,0
11.11.2018 17:00:00 17,3 13,4 16,7 14,1 15,0 9 5 19 10 WNW 1009,6 20 0,0
11.11.2018 16:00:00 17,8 12,9 18,0 13,9 15,0 10 5 19 10 SE 1008,9 60 0,0
11.11.2018 15:00:00 18,5 12,3 19,9 13,6 15,0 11 6 23 13 SSE 1009,0 43 0,0
11.11.2018 14:00:00 19,2 11,7 19,3 13,5 15,0 16 9 25 13 S 1009,0 55 0,0
11.11.2018 13:00:00 18,4 11,5 18,8 13,2 15,0 15 8 34 18 S 1009,0 49 0,0
11.11.2018 12:00:00 18,4 10,5 18,6 12,9 15,0 22 12 42 23 S 1009,0 58 0,0
11.11.2018 11:00:00 17,5 10,6 16,5 12,8 15,0 22 12 38 21 S 1009,4 53 0,0
11.11.2018 10:00:00 14,2 10,2 12,8 12,7 15,0 16 9 33 18 S 1009,3 50 0,0
11.11.2018 09:00:00 11,6 9,7 9,9 12,8 15,0 13 7 24 13 SSE 1008,7 53 0,0
11.11.2018 08:00:00 10,4 9,2 9,7 12,9 15,0 14 8 23 13 SSE 1008,1 58 0,0
11.11.2018 07:00:00 10,3 9,1 9,6 12,9 15,0 12 7 19 10 SSE 1008,1 60 0,0
11.11.2018 06:00:00 10,7 9,1 9,9 13,1 15,0 13 7 21 11 S 1008,0 60 0,0
11.11.2018 05:00:00 10,8 9,4 10,0 13,2 15,0 14 8 27 14 SSE 1008,1 60 0,0
11.11.2018 04:00:00 11,1 9,5 10,3 13,3 15,0 17 9 29 15 SSE 1008,2 60 0,0
11.11.2018 03:00:00 11,3 10,0 10,2 13,4 15,0 18 10 27 14 SSE 1008,7 60 0,0
11.11.2018 02:00:00 11,1 10,2 10,2 13,5 15,0 16 8 24 13 SSE 1008,6 60 0,2
11.11.2018 01:00:00 11,4 10,5 10,4 13,6 15,0 15 8 27 15 S 1009,0 60 0,0
11.11.2018 00:00:00 11,9 11,0 10,9 13,7 15,0 18 10 30 16 S 1008,9 60 0,0
10.11.2018 23:00:00 11,9 11,0 11,0 13,8 15,0 18 10 26 14 S 1008,9 56 0,0
10.11.2018 22:00:00 12,2 11,6 11,3 13,8 15,0 17 9 25 14 SSE 1008,6 20 0,0
10.11.2018 21:00:00 11,9 11,1 11,3 13,9 15,0 17 9 27 14 SSE 1008,2 41 0,8
10.11.2018 20:00:00 12,3 11,2 11,5 13,9 15,0 15 8 21 11 S 1008,3 9 0,6
10.11.2018 19:00:00 12,6 10,7 11,5 14,0 15,0 13 7 22 12 S 1007,5 20 1,2
10.11.2018 18:00:00 13,5 9,9 11,6 14,0 15,0 9 5 19 11 S 1006,9 49 0,2
10.11.2018 17:00:00 15,0 10,8 14,6 13,9 15,0 9 5 19 10 S 1006,9 40 0,0
10.11.2018 16:00:00 16,4 11,1 16,7 13,7 15,0 11 6 29 15 SSW 1006,3 44 0,0
10.11.2018 15:00:00 15,9 11,7 16,3 13,5 15,0 16 9 26 14 SSW 1006,4 48 0,0
10.11.2018 14:00:00 14,6 12,1 12,5 13,3 15,0 14 7 24 13 SSW 1006,6 48 0,0
10.11.2018 13:00:00 12,8 11,2 12,1 13,2 15,0 15 8 33 18 S 1006,3 19 0,2
10.11.2018 12:00:00 13,0 11,7 11,5 13,2 15,0 19 10 32 18 SW 1007,2 37 1,6
10.11.2018 11:00:00 11,8 10,9 11,4 13,1 15,0 10 6 14 8 WSW 1007,6 1,8 1,6
10.11.2018 10:00:00 11,7 10,3 11,0 13,1 15,0 5 3 16 9 S 1006,6 24 0,0
10.11.2018 09:00:00 11,6 10,0 11,1 13,1 15,0 11 6 22 12 SSE 1006,3 44 0,0
10.11.2018 08:00:00 11,2 9,8 10,6 13,1 15,0 15 8 24 13 SSE 1006,0 50 0,0
10.11.2018 07:00:00 11,3 10,0 10,6 13,2 15,0 7 4 18 10 S 1006,6 60 0,2
10.11.2018 06:00:00 11,2 9,9 10,5 13,2 15,0 11 6 18 10 SSE 1006,5 59 0,0
10.11.2018 05:00:00 11,0 10,1 10,4 13,2 15,0 11 6 17 9 SSE 1006,7 54 0,6
10.11.2018 04:00:00 11,3 10,0 10,5 13,3 15,0 11 6 21 11 SSE 1007,1 57 0,0
10.11.2018 03:00:00 11,3 9,9 10,3 13,3 15,0 16 8 31 17 SSE 1007,2 60 0,0
10.11.2018 02:00:00 11,1 9,8 10,2 13,4 15,0 19 10 31 17 S 1007,5 16 1,0
10.11.2018 01:00:00 11,3 9,4 10,3 13,4 15,0 16 9 29 16 S 1008,1 18 0,4
10.11.2018 00:00:00 11,4 9,6 10,5 13,5 15,0 20 11 32 17 SSE 1008,4 36 0,2
09.11.2018 23:00:00 11,8 9,9 10,7 13,5 15,0 20 11 31 17 SSE 1009,2 13 0,4
09.11.2018 22:00:00 12,5 9,3 11,7 13,6 15,0 20 11 34 18 S 1009,7 59 0,0
09.11.2018 21:00:00 12,2 9,9 11,7 13,6 14,9 17 9 26 14 S 1010,7 30 0,0
09.11.2018 20:00:00 12,0 9,9 11,4 13,7 15,0 16 9 25 14 SSE 1011,2 44 0,0
09.11.2018 19:00:00 11,6 9,7 10,2 13,8 15,0 14 7 20 11 SSE 1011,5 36 0,0
09.11.2018 18:00:00 12,2 9,6 10,5 13,9 15,0 9 5 21 11 SSW 1012,0 49 0,0
09.11.2018 17:00:00 14,5 9,5 14,3 13,8 15,0 13 7 25 13 S 1012,0 55 0,0
09.11.2018 16:00:00 14,8 9,2 14,8 13,8 15,0 17 9 26 14 WSW 1012,9 59 0,0
09.11.2018 15:00:00 15,7 10,2 16,2 13,5 15,0 13 7 23 13 WSW 1013,2 40 0,0
09.11.2018 14:00:00 15,9 10,4 16,1 13,3 15,0 13 7 32 18 SW 1013,8 42 0,0
09.11.2018 13:00:00 16,1 10,6 14,9 12,9 15,0 17 9 30 16 WSW 1014,5 20 0,0
09.11.2018 12:00:00 14,7 10,3 15,1 12,7 15,0 22 12 29 16 WSW 1014,9 47 0,0
09.11.2018 11:00:00 14,7 12,0 14,4 12,6 15,0 14 8 22 12 SW 1014,9 18 0,0
09.11.2018 10:00:00 12,7 11,4 10,2 12,5 15,0 8 4 15 8 SSW 1015,0 20 0,0
09.11.2018 09:00:00 10,5 10,0 10,0 12,6 15,0 9 5 16 9 S 1015,3 13 0,0
09.11.2018 08:00:00 10,6 10,1 10,2 12,5 15,0 11 6 18 10 S 1015,0 18 0,2
09.11.2018 07:00:00 10,6 10,1 10,2 12,6 15,0 11 6 16 9 SSW 1014,7 13 0,4
09.11.2018 06:00:00 10,7 10,1 10,3 12,6 15,0 6 4 26 14 SSW 1014,1 11 1,2
09.11.2018 05:00:00 10,8 10,3 10,1 12,7 15,0 17 9 27 15 W 1013,7 5 1,4
09.11.2018 04:00:00 10,5 9,9 9,9 12,7 15,0 13 7 20 11 SSW 1013,0 11 2,4
09.11.2018 03:00:00 10,5 9,3 10,2 12,7 15,0 10 6 16 8 SSE 1012,5 29 0,0
09.11.2018 02:00:00 10,9 9,2 10,6 12,7 15,0 7 4 13 7 S 1012,1 45 0,0
09.11.2018 01:00:00 11,3 9,2 10,8 12,7 15,0 7 4 17 9 SSE 1011,8 47 0,0
09.11.2018 00:00:00 11,7 9,1 11,3 12,8 15,0 13 7 22 12 SE 1011,6 53 0,0
08.11.2018 23:00:00 11,7 9,1 11,0 12,8 15,0 16 9 23 13 SE 1011,5 53 0,0
08.11.2018 22:00:00 11,8 9,0 11,3 12,9 15,1 15 8 29 15 SE 1011,6 47 0,0
08.11.2018 21:00:00 12,0 9,2 11,6 12,9 15,1 19 10 29 16 SE 1011,7 46 0,0
08.11.2018 20:00:00 11,9 9,3 11,4 12,9 15,1 19 10 29 16 SE 1012,0 31 0,0
08.11.2018 19:00:00 12,2 9,6 11,6 13,0 15,1 18 10 27 14 SE 1011,9 33 0,0
08.11.2018 18:00:00 12,4 9,6 11,4 12,9 15,1 15 8 27 15 SE 1011,9 47 0,0
08.11.2018 17:00:00 13,8 9,2 13,6 12,9 15,1 22 12 33 18 SE 1011,6 39 0,0
08.11.2018 16:00:00 14,8 9,2 15,0 12,7 15,1 20 11 37 20 ESE 1012,2 20 0,0
08.11.2018 15:00:00 15,0 9,8 14,7 12,5 15,1 23 12 36 19 SE 1012,8 34 0,0
08.11.2018 14:00:00 13,5 9,9 14,4 12,2 15,1 23 12 31 17 ESE 1013,7 46 0,0
08.11.2018 13:00:00 12,8 9,2 12,8 12,0 15,2 20 11 33 18 SE 1015,2 22 0,0
08.11.2018 12:00:00 11,1 9,4 9,9 11,8 15,1 22 12 32 18 ESE 1016,2 22 0,0
08.11.2018 11:00:00 9,5 8,7 9,7 11,7 15,2 21 11 29 16 ESE 1017,1 19 0,0
08.11.2018 10:00:00 9,0 8,7 8,3 11,6 15,2 19 10 27 15 ESE 1018,1 11 0,0
08.11.2018 09:00:00 8,0 8,0 7,0 11,6 15,1 14 8 27 15 ESE 1018,4 1,2 0,0

tt = Température de l'air
td = dewpoint
tt 5cm = Température de l'air 5cm
tt -20cm = Température de l'air -20cm
tt -100cm = Température de l'air -100cm
ff = Vitesse du vent
fx = gusts
dd = Direction du vent
ppp = reduced air pressure
vv = visibility
rr = Quantités de précipitations

stations d'obs. à proximité